User: anonymous   Login
Location: Dover
(39.1580°N, 75.5250°W)
Time: 00:14:48
(UTC-04:00)
Language:

SeaSat 1 - Orbit

View from above orbital plane
View from above orbital plane
View from above satellite
View from above satellite

Ground track
Ground track

The orbit data is extracted from the following two-line orbital elements,

1 10967U 78064A   17296.79929718 -.00000004  00000-0  39183-4 0  9998
2 10967 108.0075 208.2274 0002592 299.5443  60.5442 14.43671185 65164
Epoch (UTC): 23 October 2017 19:10:59
Eccentricity: 0.0002592
inclination: 108.0075°
perigee height: 744 km
apogee height: 748 km
right ascension of ascending node: 208.2274°
argument of perigee: 299.5443°
revolutions per day: 14.43671185
mean anomaly at epoch: 60.5442°
orbit number at epoch: 6516

The dashed part of the orbit path shows where the satellite is in the earth's shadow,  

DLR